Wind_Speed
61 57 52 51 54 58 61 63 64 64 63 62 61 61 61 59 57 55 52 50 48 46 45 43 42 40 39 37 35 34 34 33 34 34 33 33 33 32 31 32 33 35
58 56 53 54 57 58 60 61 62 61 61 60 58 55 52 50 48 47 46 44 43 42 41 40 39 39 37 36 34 33 32 32 33 33 34 34 33 32 33 34 35 36
52 50 51 55 57 56 57 57 58 57 55 53 49 45 42 41 41 41 41 41 40 39 39 38 38 37 36 34 32 31 31 31 31 33 34 34 34 34 35 35 36 36
44 45 51 57 58 59 58 57 55 52 49 46 42 40 38 37 36 36 36 37 37 37 37 37 37 36 34 33 32 31 30 30 31 32 33 33 34 34 35 35 35 35
54 56 60 63 62 60 57 54 51 48 45 42 40 38 37 36 35 34 33 33 34 35 35 35 35 34 33 32 31 30 30 30 30 31 32 32 33 34 34 34 35 35
61 63 64 63 61 57 54 52 50 47 44 42 40 39 39 38 37 35 34 32 32 32 33 33 32 31 31 31 31 30 29 29 30 30 31 32 33 34 34 34 34 35
54 58 59 59 58 56 55 54 51 49 47 44 43 42 41 39 38 36 35 33 31 30 30 30 30 29 30 30 30 30 30 30 30 31 31 32 33 33 33 34 34 34
43 48 51 54 55 55 55 54 53 51 49 47 45 43 41 39 38 37 36 34 33 31 30 29 29 29 29 30 30 30 30 30 30 31 31 31 31 31 32 32 33 33
32 39 45 49 50 51 52 52 52 51 50 49 47 44 41 39 37 37 37 36 35 34 32 30 29 30 30 30 30 30 30 30 30 30 29 29 29 29 30 30 30 31
28 32 39 44 45 46 48 49 49 48 48 48 47 45 43 40 38 38 37 36 36 34 33 31 30 29 29 29 29 29 29 29 28 29 28 28 28 28 28 29 29 30
30 29 33 38 40 42 44 46 47 47 46 46 46 46 44 41 39 38 37 36 35 34 33 32 30 29 28 27 28 28 28 28 28 27 27 27 27 27 28 28 29 30
35 36 37 35 33 34 35 37 40 42 42 43 44 44 43 41 40 39 38 37 36 35 34 32 31 30 29 29 29 29 30 30 29 28 28 28 28 28 29 30 31 32
38 41 41 36 32 29 29 29 30 32 33 35 37 38 38 38 38 38 39 38 37 36 35 32 31 31 31 31 31 31 31 31 31 30 30 30 30 30 31 31 32 34
37 38 37 34 32 31 31 30 27 27 29 31 33 35 35 36 36 37 38 37 37 36 34 33 33 33 34 34 33 32 31 32 32 32 32 32 32 33 33 33 34 36
37 36 34 33 32 32 34 33 30 30 31 34 36 37 38 38 37 37 37 37 36 35 35 35 35 35 35 35 34 33 34 34 35 35 35 35 36 36 36 36 37 38
38 37 36 35 34 34 36 35 33 34 35 38 38 38 38 37 36 36 37 37 37 38 38 38 38 38 37 36 36 36 36 36 36 37 38 38 39 39 40 41 41 41
40 39 38 38 38 37 37 37 37 37 38 40 40 40 39 37 35 35 36 36 37 37 38 39 39 38 37 37 38 38 38 38 39 41 42 43 42 42 43 44 44 43
41 40 40 41 42 41 41 41 41 39 40 41 42 41 41 41 39 38 38 39 38 37 38 40 40 39 38 39 40 41 41 43 44 45 46 46 46 46 46 46 45 43
41 41 40 40 40 42 44 45 44 42 42 42 42 42 42 43 42 42 42 42 41 41 41 43 44 43 42 43 45 45 46 47 47 48 49 49 49 48 48 46 44 42
42 43 42 40 40 41 44 45 46 45 45 45 44 43 43 43 42 41 41 41 42 43 43 44 46 46 45 47 48 48 48 49 50 51 51 50 49 48 47 46 44 43
46 46 46 45 43 43 43 45 46 46 47 48 47 46 45 45 44 43 43 43 43 44 45 46 47 47 48 49 50 50 51 52 53 53 52 50 48 47 47 47 47 47
51 50 48 47 46 45 45 46 46 47 47 48 49 49 48 48 49 49 49 49 49 49 50 50 50 50 50 50 51 51 52 52 52 51 50 49 48 48 49 51 52 53
57 57 55 52 51 49 48 48 48 48 47 48 49 50 50 49 50 51 51 51 51 50 51 51 51 51 50 51 51 51 51 51 52 52 52 52 53 53 55 58 59 61
54 57 58 58 57 56 54 53 52 51 50 50 51 52 52 51 51 51 51 51 50 49 49 51 52 52 53 53 54 54 54 54 55 56 57 58 59 60 62 64 67 69
51 52 54 56 58 59 59 59 59 58 57 56 55 55 55 55 55 53 53 53 52 51 52 54 55 55 56 56 57 57 58 59 60 61 62 63 65 67 69 71 72 73
57 56 55 54 55 56 58 60 62 63 64 63 63 61 60 60 60 60 59 59 58 58 58 59 60 60 61 62 63 64 65 66 68 68 70 71 73 74 75 74 73 73
Wind_Direction
242 241 240 242 243 245 249 251 255 259 263 265 268 270 272 272 272 272 272 273 273 273 272 272 271 270 269 268 267 267 266 265 263 262 259 256 253 251 251 254 258 261
242 241 239 241 246 250 252 254 258 262 265 267 269 270 270 270 269 270 271 271 272 272 272 271 270 269 268 267 267 266 266 265 263 261 258 255 253 252 252 254 257 259
243 242 240 241 245 249 254 258 262 264 265 266 266 266 267 267 268 269 270 271 271 271 271 270 269 267 266 266 266 264 263 261 260 259 257 255 253 252 253 255 256 257
235 232 234 239 245 251 257 261 262 262 262 262 261 262 265 267 270 271 272 272 271 270 269 269 267 266 265 264 262 260 258 257 256 256 257 257 257 256 256 257 258 258
230 232 238 244 250 254 256 257 257 258 259 260 260 262 265 268 271 273 274 274 272 270 269 267 266 264 263 261 259 257 255 255 255 256 258 259 260 259 259 259 259 260
237 240 244 247 249 251 251 252 254 256 258 260 262 264 267 270 272 275 275 276 275 273 270 267 264 262 260 259 257 255 254 254 255 257 259 260 261 261 261 261 261 262
245 246 247 248 248 248 249 251 254 256 259 262 265 268 270 271 273 275 276 276 276 276 274 270 265 262 259 258 257 255 255 256 257 259 260 261 262 263 263 263 264 264
250 252 253 252 251 250 251 254 256 259 263 265 268 270 271 272 273 273 274 275 276 277 277 273 267 262 259 258 257 257 258 258 259 260 261 261 263 264 265 265 265 266
253 256 257 256 255 254 254 256 258 261 264 266 268 270 271 271 271 271 272 273 275 277 276 273 268 263 259 257 256 256 256 257 258 259 259 260 261 262 264 265 266 267
244 253 257 256 253 252 253 254 256 259 261 264 266 267 268 269 269 270 270 271 273 274 274 272 268 264 260 256 255 255 255 255 256 257 258 259 261 262 263 265 266 268
229 235 246 252 252 250 251 252 253 255 257 260 263 265 266 267 267 268 268 269 271 272 272 271 268 265 262 260 260 260 259 257 256 257 258 259 261 262 263 265 267 268
226 225 230 241 250 254 255 254 254 256 257 260 263 264 266 266 267 267 268 268 270 271 271 271 270 267 266 266 266 268 266 262 259 258 258 259 261 262 263 265 266 267
230 230 231 236 246 253 257 257 257 258 258 259 261 263 265 266 267 268 269 270 270 271 271 272 271 270 270 269 270 271 270 265 262 261 260 260 261 262 264 265 266 267
232 235 237 241 247 250 254 258 260 259 257 258 260 263 265 266 267 268 269 270 270 270 270 271 271 271 272 271 271 271 268 264 263 264 265 265 266 265 265 266 268 270
233 237 241 245 248 250 253 257 258 257 256 257 260 263 265 266 267 267 268 268 268 269 269 270 271 272 273 272 271 270 268 266 265 266 268 269 269 267 266 269 274 275
233 237 242 244 244 247 250 254 255 255 256 257 258 260 262 263 265 266 267 267 268 269 271 272 273 274 274 273 273 273 273 271 269 271 274 275 272 269 270 275 280 280
233 236 239 240 240 242 245 249 252 253 255 257 258 259 260 261 262 263 264 266 267 269 270 272 274 275 276 274 274 274 275 275 276 278 280 279 277 276 276 279 282 282
234 236 237 239 240 240 242 244 247 251 253 256 259 261 261 261 261 261 262 264 267 267 267 270 272 274 274 273 273 274 276 278 280 281 282 282 281 281 282 283 284 284
234 235 236 237 237 238 240 243 246 249 253 255 257 260 261 262 262 263 265 266 267 267 267 269 272 274 275 275 275 277 278 280 282 283 283 284 284 284 285 286 286 284
232 233 233 234 235 237 240 243 245 248 251 252 253 256 259 261 262 264 266 267 267 268 270 272 274 277 278 278 280 281 282 283 284 284 284 285 286 287 287 287 286 285
230 231 233 235 239 241 243 245 246 247 249 250 251 253 256 259 260 261 262 264 266 269 271 273 275 277 279 280 282 284 285 285 286 287 287 288 288 288 287 285 285 284
230 232 235 238 242 245 246 247 248 248 249 250 251 253 256 259 261 262 262 264 267 270 272 274 275 277 278 280 281 282 283 284 285 285 286 285 285 283 281 280 280 279
235 236 238 241 244 246 247 247 248 248 249 250 250 253 256 260 262 264 265 266 268 270 272 272 273 274 274 274 274 274 274 275 276 276 277 276 276 275 274 274 275 275
240 241 243 245 248 248 248 247 246 247 247 248 249 251 253 257 260 261 263 263 263 264 264 264 266 267 267 267 268 267 267 267 268 269 270 270 271 271 271 273 275 277
240 243 245 248 250 252 252 251 250 249 249 249 249 249 249 251 253 255 256 257 257 257 256 256 258 259 260 262 263 264 264 265 266 267 268 269 270 272 274 276 278 280
236 239 241 244 246 249 252 253 253 253 253 253 252 251 250 250 250 251 252 254 255 255 256 256 257 258 259 261 262 264 265 267 268 270 271 273 275 276 278 279 280 280
Height
10677 10680 10680 10674 10670 10670 10671 10670 10670 10670 10669 10669 10671 10673 10674 10676 10676 10676 10676 10676 10675 10675 10675 10674 10673 10673 10673 10673 10673 10672 10672 10672 10672 10672 10673 10674 10675 10675 10675 10676 10676 10676
10670 10673 10670 10664 10662 10662 10662 10662 10663 10663 10663 10664 10667 10668 10669 10670 10670 10670 10670 10670 10670 10669 10669 10669 10668 10668 10668 10668 10668 10667 10667 10667 10668 10668 10668 10669 10670 10670 10671 10671 10671 10672
10664 10666 10661 10656 10655 10656 10656 10657 10657 10657 10658 10660 10662 10663 10663 10664 10664 10664 10664 10664 10664 10664 10664 10663 10663 10663 10663 10663 10663 10662 10663 10663 10663 10663 10663 10664 10664 10665 10666 10666 10667 10667
10660 10659 10654 10650 10651 10652 10652 10652 10652 10652 10653 10655 10656 10657 10658 10658 10658 10659 10659 10659 10659 10658 10658 10658 10658 10658 10658 10658 10658 10658 10658 10658 10659 10659 10659 10659 10660 10660 10661 10662 10662 10662
10655 10653 10650 10648 10649 10649 10649 10648 10647 10648 10649 10650 10651 10652 10652 10653 10654 10654 10654 10654 10654 10653 10653 10653 10653 10653 10652 10652 10653 10653 10653 10654 10654 10655 10655 10655 10656 10656 10657 10657 10658 10658
10652 10650 10648 10646 10646 10646 10644 10643 10644 10644 10645 10646 10647 10647 10647 10648 10649 10649 10650 10650 10649 10649 10649 10648 10648 10648 10648 10648 10648 10649 10649 10650 10650 10651 10651 10652 10652 10652 10653 10653 10653 10653
10650 10647 10645 10643 10643 10642 10640 10640 10640 10640 10641 10642 10642 10642 10642 10643 10644 10644 10645 10645 10645 10645 10645 10644 10644 10644 10644 10644 10644 10645 10645 10646 10646 10647 10647 10647 10648 10648 10648 10649 10649 10649
10646 10643 10641 10639 10638 10638 10637 10636 10636 10636 10636 10637 10637 10637 10637 10638 10639 10639 10640 10641 10641 10641 10641 10641 10641 10640 10640 10641 10641 10641 10642 10642 10642 10642 10643 10643 10643 10644 10644 10644 10645 10645
10641 10637 10634 10633 10632 10632 10632 10631 10631 10631 10631 10632 10632 10632 10633 10634 10635 10635 10636 10636 10636 10636 10637 10637 10637 10637 10637 10637 10637 10637 10637 10638 10638 10638 10638 10639 10639 10640 10640 10640 10640 10640
10637 10633 10627 10623 10623 10624 10624 10624 10624 10625 10626 10626 10627 10628 10629 10630 10630 10631 10631 10631 10631 10632 10632 10633 10633 10633 10633 10633 10633 10634 10634 10634 10634 10634 10635 10635 10636 10636 10636 10636 10637 10637
10628 10626 10618 10614 10614 10615 10616 10618 10619 10619 10621 10621 10622 10623 10624 10625 10626 10626 10627 10627 10627 10627 10628 10629 10629 10630 10630 10630 10630 10630 10631 10631 10631 10631 10632 10632 10632 10633 10633 10633 10633 10633
10617 10614 10609 10607 10609 10610 10611 10613 10614 10615 10616 10617 10617 10617 10619 10620 10621 10621 10622 10622 10623 10623 10624 10625 10625 10626 10626 10627 10627 10627 10627 10628 10628 10628 10629 10629 10629 10629 10629 10630 10630 10630
10609 10607 10605 10606 10607 10608 10608 10609 10610 10611 10612 10612 10612 10613 10614 10615 10616 10616 10617 10617 10618 10618 10619 10620 10621 10621 10622 10622 10623 10623 10624 10624 10624 10624 10625 10625 10625 10625 10626 10626 10626 10626
10604 10604 10605 10605 10605 10605 10605 10605 10606 10607 10607 10608 10608 10609 10609 10610 10611 10611 10611 10612 10613 10613 10614 10615 10616 10616 10617 10618 10618 10619 10619 10619 10620 10620 10620 10621 10621 10621 10621 10622 10622 10622
10601 10601 10601 10601 10601 10601 10600 10601 10602 10603 10604 10604 10604 10604 10605 10605 10606 10606 10606 10607 10608 10609 10609 10610 10611 10612 10612 10613 10614 10614 10614 10615 10615 10615 10616 10616 10616 10616 10617 10617 10617 10617
10596 10596 10597 10597 10597 10597 10596 10596 10598 10598 10599 10599 10600 10600 10600 10601 10601 10601 10601 10602 10603 10603 10604 10605 10606 10606 10607 10608 10608 10609 10609 10609 10610 10610 10611 10611 10612 10612 10612 10612 10612 10612
10591 10591 10591 10591 10592 10592 10592 10592 10592 10593 10594 10594 10595 10596 10596 10596 10597 10596 10595 10596 10597 10598 10598 10598 10599 10600 10601 10602 10602 10602 10603 10603 10604 10605 10605 10606 10606 10607 10607 10606 10606 10606
10586 10586 10585 10585 10586 10588 10587 10587 10587 10589 10589 10590 10591 10591 10591 10592 10592 10592 10591 10591 10591 10592 10592 10592 10593 10594 10595 10595 10595 10596 10597 10597 10597 10598 10598 10599 10600 10600 10600 10600 10600 10599
10580 10580 10579 10580 10581 10582 10582 10582 10583 10584 10585 10586 10587 10586 10586 10586 10587 10587 10587 10587 10587 10587 10587 10587 10587 10588 10590 10589 10589 10590 10590 10590 10590 10590 10591 10592 10593 10593 10593 10592 10592 10591
10574 10574 10574 10575 10576 10576 10576 10577 10578 10579 10580 10581 10582 10581 10581 10581 10581 10582 10582 10582 10582 10582 10581 10581 10581 10582 10583 10582 10582 10582 10582 10582 10583 10583 10584 10585 10585 10585 10584 10584 10584 10583
10568 10568 10569 10570 10571 10571 10572 10572 10573 10574 10575 10576 10576 10577 10576 10576 10576 10577 10577 10577 10577 10577 10576 10576 10575 10576 10576 10575 10575 10575 10574 10574 10574 10575 10576 10577 10577 10577 10576 10576 10576 10576
10563 10563 10564 10566 10566 10566 10567 10567 10568 10569 10570 10571 10571 10572 10571 10571 10571 10571 10572 10572 10572 10572 10572 10571 10571 10571 10570 10569 10569 10569 10568 10568 10568 10568 10569 10569 10570 10572 10571 10570 10569 10569
10557 10558 10559 10560 10561 10561 10562 10562 10562 10564 10565 10565 10566 10567 10567 10566 10565 10565 10566 10567 10567 10567 10566 10565 10565 10565 10565 10564 10564 10564 10564 10564 10563 10564 10565 10565 10566 10567 10566 10564 10562 10561
10552 10553 10554 10554 10555 10556 10556 10556 10557 10557 10558 10559 10561 10562 10562 10562 10561 10561 10561 10561 10562 10562 10561 10560 10559 10559 10559 10559 10559 10558 10558 10559 10559 10559 10559 10559 10560 10559 10558 10556 10554 10552
10548 10548 10549 10549 10549 10549 10550 10550 10550 10551 10552 10553 10554 10556 10557 10557 10557 10557 10556 10555 10556 10557 10555 10554 10554 10554 10554 10553 10552 10552 10552 10552 10552 10552 10552 10552 10551 10550 10549 10549 10547 10543
10541 10542 10543 10544 10544 10543 10543 10543 10543 10544 10545 10545 10547 10548 10549 10549 10550 10550 10549 10549 10550 10550 10549 10547 10547 10547 10547 10546 10546 10545 10545 10544 10544 10545 10544 10543 10541 10540 10540 10540 10538 10535